Year,Month,Day,Hour,Minute,Value (Times are PST for temperature in C)
2003,06,08,00,00,16.40
2003,06,08,00,01,16.40
2003,06,08,00,02,16.40
2003,06,08,00,03,16.40
2003,06,08,00,04,16.50
2003,06,08,00,05,16.60
2003,06,08,00,06,16.60
2003,06,08,00,07,16.60
2003,06,08,00,08,16.50
2003,06,08,00,09,16.40
2003,06,08,00,10,16.40
2003,06,08,00,11,16.50
2003,06,08,00,12,16.60
2003,06,08,00,13,16.60
2003,06,08,00,14,16.60
2003,06,08,00,15,16.60
2003,06,08,00,16,16.70
2003,06,08,00,17,16.70
2003,06,08,00,18,16.70
2003,06,08,00,19,16.60
2003,06,08,00,20,16.60
2003,06,08,00,21,16.60
2003,06,08,00,22,16.50
2003,06,08,00,23,16.40
2003,06,08,00,24,16.50
2003,06,08,00,25,16.50
2003,06,08,00,26,16.60
2003,06,08,00,27,16.60
2003,06,08,00,28,16.60
2003,06,08,00,29,16.60
2003,06,08,00,30,16.70
2003,06,08,00,31,16.70
2003,06,08,00,32,16.80
2003,06,08,00,33,16.80
2003,06,08,00,34,16.90
2003,06,08,00,35,16.90
2003,06,08,00,36,16.90
2003,06,08,00,37,16.90
2003,06,08,00,38,16.80
2003,06,08,00,39,16.80
2003,06,08,00,40,16.90
2003,06,08,00,41,16.90
2003,06,08,00,42,16.80
2003,06,08,00,43,16.80
2003,06,08,00,44,16.80
2003,06,08,00,45,16.80
2003,06,08,00,46,16.90
2003,06,08,00,47,16.90
2003,06,08,00,48,16.90
2003,06,08,00,49,16.80
2003,06,08,00,50,16.60
2003,06,08,00,51,16.50
2003,06,08,00,52,16.40
2003,06,08,00,53,16.40
2003,06,08,00,54,16.30
2003,06,08,00,55,16.30
2003,06,08,00,56,16.30
2003,06,08,00,57,16.30
2003,06,08,00,58,16.30
2003,06,08,00,59,16.30
2003,06,08,01,00,16.20
2003,06,08,01,01,16.30
2003,06,08,01,02,16.30
2003,06,08,01,03,16.40
2003,06,08,01,04,16.40
2003,06,08,01,05,16.40
2003,06,08,01,06,16.40
2003,06,08,01,07,16.40
2003,06,08,01,08,16.40
2003,06,08,01,09,16.40
2003,06,08,01,10,16.40
2003,06,08,01,11,16.40
2003,06,08,01,12,16.40
2003,06,08,01,13,16.40
2003,06,08,01,14,16.40
2003,06,08,01,15,16.40
2003,06,08,01,16,16.40
2003,06,08,01,17,16.40
2003,06,08,01,18,16.40
2003,06,08,01,19,16.40
2003,06,08,01,20,16.40
2003,06,08,01,21,16.40
2003,06,08,01,22,16.40
2003,06,08,01,23,16.40
2003,06,08,01,24,16.50
2003,06,08,01,25,16.60
2003,06,08,01,26,16.60
2003,06,08,01,27,16.60
2003,06,08,01,28,16.50
2003,06,08,01,29,16.40
2003,06,08,01,30,16.40
2003,06,08,01,31,16.40
2003,06,08,01,32,16.40
2003,06,08,01,33,16.30
2003,06,08,01,34,16.30
2003,06,08,01,35,16.20
2003,06,08,01,36,16.20
2003,06,08,01,37,16.10
2003,06,08,01,38,16.10
2003,06,08,01,39,16.00
2003,06,08,01,40,15.90
2003,06,08,01,41,15.90
2003,06,08,01,42,15.80
2003,06,08,01,43,15.80
2003,06,08,01,44,15.70
2003,06,08,01,45,15.70
2003,06,08,01,46,15.80
2003,06,08,01,47,15.80
2003,06,08,01,48,15.80
2003,06,08,01,49,15.80
2003,06,08,01,50,15.80
2003,06,08,01,51,15.90
2003,06,08,01,52,15.90
2003,06,08,01,53,15.90
2003,06,08,01,54,15.90
2003,06,08,01,55,15.90
2003,06,08,01,56,15.90
2003,06,08,01,57,16.00
2003,06,08,01,58,16.10
2003,06,08,01,59,16.10
2003,06,08,02,00,16.20
2003,06,08,02,01,16.30
2003,06,08,02,02,16.40
2003,06,08,02,03,16.40
2003,06,08,02,04,16.30
2003,06,08,02,05,16.30
2003,06,08,02,06,16.30
2003,06,08,02,07,16.40
2003,06,08,02,08,16.50
2003,06,08,02,09,16.50
2003,06,08,02,10,16.40
2003,06,08,02,11,16.30
2003,06,08,02,12,16.20
2003,06,08,02,13,16.30
2003,06,08,02,14,16.30
2003,06,08,02,15,16.40
2003,06,08,02,16,16.40
2003,06,08,02,17,16.40
2003,06,08,02,18,16.40
2003,06,08,02,19,16.40
2003,06,08,02,20,16.30
2003,06,08,02,21,16.20
2003,06,08,02,22,16.10
2003,06,08,02,23,15.90
2003,06,08,02,24,15.80
2003,06,08,02,25,15.70
2003,06,08,02,26,15.60
2003,06,08,02,27,15.60
2003,06,08,02,28,15.60
2003,06,08,02,29,15.60
2003,06,08,02,30,15.60
2003,06,08,02,31,15.60
2003,06,08,02,32,15.60
2003,06,08,02,33,15.60
2003,06,08,02,34,15.60
2003,06,08,02,35,15.50
2003,06,08,02,36,15.50
2003,06,08,02,37,15.50
2003,06,08,02,38,15.40
2003,06,08,02,39,15.30
2003,06,08,02,40,15.30
2003,06,08,02,41,15.20
2003,06,08,02,42,15.20
2003,06,08,02,43,15.10
2003,06,08,02,44,15.10
2003,06,08,02,45,15.00
2003,06,08,02,46,14.90
2003,06,08,02,47,14.80
2003,06,08,02,48,14.80
2003,06,08,02,49,14.80
2003,06,08,02,50,14.60
2003,06,08,02,51,14.50
2003,06,08,02,52,14.50
2003,06,08,02,53,14.40
2003,06,08,02,54,14.40
2003,06,08,02,55,14.40
2003,06,08,02,56,14.40
2003,06,08,02,57,14.40
2003,06,08,02,58,14.40
2003,06,08,02,59,14.30
2003,06,08,03,00,14.30
2003,06,08,03,01,14.30
2003,06,08,03,02,14.20
2003,06,08,03,03,14.20
2003,06,08,03,04,14.20
2003,06,08,03,05,14.20
2003,06,08,03,06,14.20
2003,06,08,03,07,14.20
2003,06,08,03,08,14.20
2003,06,08,03,09,14.20
2003,06,08,03,10,14.20
2003,06,08,03,11,14.20
2003,06,08,03,12,14.30
2003,06,08,03,13,14.30
2003,06,08,03,14,14.40
2003,06,08,03,15,14.40
2003,06,08,03,16,14.40
2003,06,08,03,17,14.40
2003,06,08,03,18,14.40
2003,06,08,03,19,14.30
2003,06,08,03,20,14.30
2003,06,08,03,21,14.30
2003,06,08,03,22,14.20
2003,06,08,03,23,14.10
2003,06,08,03,24,14.00
2003,06,08,03,25,13.90
2003,06,08,03,26,13.80
2003,06,08,03,27,13.70
2003,06,08,03,28,13.70
2003,06,08,03,29,13.60
2003,06,08,03,30,13.50
2003,06,08,03,31,13.40
2003,06,08,03,32,13.30
2003,06,08,03,33,13.30
2003,06,08,03,34,13.20
2003,06,08,03,35,13.10
2003,06,08,03,36,13.10
2003,06,08,03,37,13.00
2003,06,08,03,38,13.00
2003,06,08,03,39,13.00
2003,06,08,03,40,12.90
2003,06,08,03,41,12.90
2003,06,08,03,42,12.80
2003,06,08,03,43,12.80
2003,06,08,03,44,12.80
2003,06,08,03,45,12.80
2003,06,08,03,46,12.70
2003,06,08,03,47,12.60
2003,06,08,03,48,12.60
2003,06,08,03,49,12.50
2003,06,08,03,50,12.50
2003,06,08,03,51,12.40
2003,06,08,03,52,12.40
2003,06,08,03,53,12.30
2003,06,08,03,54,12.30
2003,06,08,03,55,12.30
2003,06,08,03,56,12.20
2003,06,08,03,57,12.20
2003,06,08,03,58,12.10
2003,06,08,03,59,12.10
2003,06,08,04,00,12.10
2003,06,08,04,01,12.00
2003,06,08,04,02,12.00
2003,06,08,04,03,12.00
2003,06,08,04,04,12.00
2003,06,08,04,05,12.00
2003,06,08,04,06,12.00
2003,06,08,04,07,12.10
2003,06,08,04,08,12.10
2003,06,08,04,09,12.10
2003,06,08,04,10,12.20
2003,06,08,04,11,12.20
2003,06,08,04,12,12.20
2003,06,08,04,13,12.20
2003,06,08,04,14,12.30
2003,06,08,04,15,12.40
2003,06,08,04,16,12.50
2003,06,08,04,17,12.50
2003,06,08,04,18,12.50
2003,06,08,04,19,12.50
2003,06,08,04,20,12.60
2003,06,08,04,21,12.60
2003,06,08,04,22,12.70
2003,06,08,04,23,12.70
2003,06,08,04,24,12.70
2003,06,08,04,25,12.70
2003,06,08,04,26,12.70
2003,06,08,04,27,12.80
2003,06,08,04,28,12.80
2003,06,08,04,29,12.80
2003,06,08,04,30,12.80
2003,06,08,04,31,12.70
2003,06,08,04,32,12.70
2003,06,08,04,33,12.70
2003,06,08,04,34,12.70
2003,06,08,04,35,12.80
2003,06,08,04,36,12.70
2003,06,08,04,37,12.70
2003,06,08,04,38,12.60
2003,06,08,04,39,12.50
2003,06,08,04,40,12.40
2003,06,08,04,41,12.30
2003,06,08,04,42,12.20
2003,06,08,04,43,12.10
2003,06,08,04,44,12.10
2003,06,08,04,45,12.10
2003,06,08,04,46,12.00
2003,06,08,04,47,12.00
2003,06,08,04,48,11.90
2003,06,08,04,49,11.90
2003,06,08,04,50,11.90
2003,06,08,04,51,11.90
2003,06,08,04,52,11.80
2003,06,08,04,53,11.80
2003,06,08,04,54,11.80
2003,06,08,04,55,11.80
2003,06,08,04,56,11.80
2003,06,08,04,57,11.80
2003,06,08,04,58,11.70
2003,06,08,04,59,11.60
2003,06,08,05,00,11.60
2003,06,08,05,01,11.60
2003,06,08,05,02,11.60
2003,06,08,05,03,11.60
2003,06,08,05,04,11.60
2003,06,08,05,05,11.60
2003,06,08,05,06,11.60
2003,06,08,05,07,11.60
2003,06,08,05,08,11.60
2003,06,08,05,09,11.50
2003,06,08,05,10,11.50
2003,06,08,05,11,11.40
2003,06,08,05,12,11.50
2003,06,08,05,13,11.60
2003,06,08,05,14,11.60
2003,06,08,05,15,11.60
2003,06,08,05,16,11.60
2003,06,08,05,17,11.60
2003,06,08,05,18,11.60
2003,06,08,05,19,11.60
2003,06,08,05,20,11.60
2003,06,08,05,21,11.60
2003,06,08,05,22,11.60
2003,06,08,05,23,11.60
2003,06,08,05,24,11.60
2003,06,08,05,25,11.60
2003,06,08,05,26,11.60
2003,06,08,05,27,11.60
2003,06,08,05,28,11.60
2003,06,08,05,29,11.60
2003,06,08,05,30,11.60
2003,06,08,05,31,11.60
2003,06,08,05,32,11.60
2003,06,08,05,33,11.60
2003,06,08,05,34,11.60
2003,06,08,05,35,11.60
2003,06,08,05,36,11.60
2003,06,08,05,37,11.60
2003,06,08,05,38,11.60
2003,06,08,05,39,11.60
2003,06,08,05,40,11.60
2003,06,08,05,41,11.60
2003,06,08,05,42,11.60
2003,06,08,05,43,11.70
2003,06,08,05,44,11.80
2003,06,08,05,45,11.80
2003,06,08,05,46,11.80
2003,06,08,05,47,11.90
2003,06,08,05,48,11.90
2003,06,08,05,49,11.90
2003,06,08,05,50,12.00
2003,06,08,05,51,12.00
2003,06,08,05,52,12.00
2003,06,08,05,53,12.10
2003,06,08,05,54,12.20
2003,06,08,05,55,12.30
2003,06,08,05,56,12.50
2003,06,08,05,57,12.60
2003,06,08,05,58,12.70
2003,06,08,05,59,12.80
2003,06,08,06,00,12.90
2003,06,08,06,01,13.00
2003,06,08,06,02,13.10
2003,06,08,06,03,13.20
2003,06,08,06,04,13.30
2003,06,08,06,05,13.30
2003,06,08,06,06,13.40
2003,06,08,06,07,13.40
2003,06,08,06,08,13.40
2003,06,08,06,09,13.50
2003,06,08,06,10,13.70
2003,06,08,06,11,13.80
2003,06,08,06,12,13.90
2003,06,08,06,13,13.90
2003,06,08,06,14,13.90
2003,06,08,06,15,14.00
2003,06,08,06,16,14.10
2003,06,08,06,17,14.20
2003,06,08,06,18,14.40
2003,06,08,06,19,14.40
2003,06,08,06,20,14.40
2003,06,08,06,21,14.30
2003,06,08,06,22,14.50
2003,06,08,06,23,14.50
2003,06,08,06,24,14.70
2003,06,08,06,25,14.70
2003,06,08,06,26,14.60
2003,06,08,06,27,14.50
2003,06,08,06,28,14.40
2003,06,08,06,29,14.30
2003,06,08,06,30,14.10
2003,06,08,06,31,14.10
2003,06,08,06,32,14.00
2003,06,08,06,33,13.90
2003,06,08,06,34,13.90
2003,06,08,06,35,13.80
2003,06,08,06,36,13.80
2003,06,08,06,37,13.80
2003,06,08,06,38,13.80
2003,06,08,06,39,13.80
2003,06,08,06,40,13.80
2003,06,08,06,41,13.80
2003,06,08,06,42,13.80
2003,06,08,06,43,13.90
2003,06,08,06,44,14.00
2003,06,08,06,45,14.10
2003,06,08,06,46,14.20
2003,06,08,06,47,14.30
2003,06,08,06,48,14.40
2003,06,08,06,49,14.60
2003,06,08,06,50,14.70
2003,06,08,06,51,14.80
2003,06,08,06,52,14.90
2003,06,08,06,53,15.00
2003,06,08,06,54,15.10
2003,06,08,06,55,15.20
2003,06,08,06,56,15.30
2003,06,08,06,57,15.30
2003,06,08,06,58,15.40
2003,06,08,06,59,15.50
2003,06,08,07,00,15.50
2003,06,08,07,01,15.60
2003,06,08,07,02,15.70
2003,06,08,07,03,15.80
2003,06,08,07,04,15.90
2003,06,08,07,05,15.80
2003,06,08,07,06,15.70
2003,06,08,07,07,15.50
2003,06,08,07,08,15.30
2003,06,08,07,09,15.10
2003,06,08,07,10,15.00
2003,06,08,07,11,14.80
2003,06,08,07,12,14.50
2003,06,08,07,13,14.20
2003,06,08,07,14,14.10
2003,06,08,07,15,14.00
2003,06,08,07,16,14.00
2003,06,08,07,17,13.90
2003,06,08,07,18,13.80
2003,06,08,07,19,13.70
2003,06,08,07,20,13.70
2003,06,08,07,21,13.50
2003,06,08,07,22,13.20
2003,06,08,07,23,13.10
2003,06,08,07,24,12.90
2003,06,08,07,25,12.70
2003,06,08,07,26,12.60
2003,06,08,07,27,12.50
2003,06,08,07,28,12.50
2003,06,08,07,29,12.40
2003,06,08,07,30,12.40
2003,06,08,07,31,12.30
2003,06,08,07,32,12.30
2003,06,08,07,33,12.40
2003,06,08,07,34,12.30
2003,06,08,07,35,12.30
2003,06,08,07,36,12.30
2003,06,08,07,37,12.50
2003,06,08,07,38,12.50
2003,06,08,07,39,12.50
2003,06,08,07,40,12.60
2003,06,08,07,41,12.50
2003,06,08,07,42,12.50
2003,06,08,07,43,12.50
2003,06,08,07,44,12.50
2003,06,08,07,45,12.60
2003,06,08,07,46,12.70
2003,06,08,07,47,12.80
2003,06,08,07,48,12.80
2003,06,08,07,49,12.80
2003,06,08,07,50,12.80
2003,06,08,07,51,12.90
2003,06,08,07,52,12.90
2003,06,08,07,53,12.90
2003,06,08,07,54,12.80
2003,06,08,07,55,12.90
2003,06,08,07,56,12.90
2003,06,08,07,57,12.90
2003,06,08,07,58,12.90
2003,06,08,07,59,13.00
2003,06,08,08,00,13.10
2003,06,08,08,01,13.10
2003,06,08,08,02,13.10
2003,06,08,08,03,13.10
2003,06,08,08,04,13.10
2003,06,08,08,05,13.10
2003,06,08,08,06,13.20
2003,06,08,08,07,13.10
2003,06,08,08,08,13.20
2003,06,08,08,09,13.20
2003,06,08,08,10,13.30
2003,06,08,08,11,13.40
2003,06,08,08,12,13.40
2003,06,08,08,13,13.50
2003,06,08,08,14,13.50
2003,06,08,08,15,13.50
2003,06,08,08,16,13.40
2003,06,08,08,17,13.40
2003,06,08,08,18,13.40
2003,06,08,08,19,13.40
2003,06,08,08,20,13.50
2003,06,08,08,21,13.50
2003,06,08,08,22,13.60
2003,06,08,08,23,13.70
2003,06,08,08,24,13.80
2003,06,08,08,25,13.90
2003,06,08,08,26,13.90
2003,06,08,08,27,13.90
2003,06,08,08,28,13.90
2003,06,08,08,29,14.00
2003,06,08,08,30,14.00
2003,06,08,08,31,14.00
2003,06,08,08,32,14.10
2003,06,08,08,33,14.10
2003,06,08,08,34,14.10
2003,06,08,08,35,14.10
2003,06,08,08,36,14.00
2003,06,08,08,37,13.90
2003,06,08,08,38,13.90
2003,06,08,08,39,14.00
2003,06,08,08,40,14.10
2003,06,08,08,41,14.00
2003,06,08,08,42,14.00
2003,06,08,08,43,14.00
2003,06,08,08,44,14.00
2003,06,08,08,45,14.00
2003,06,08,08,46,13.90
2003,06,08,08,47,13.90
2003,06,08,08,48,13.90
2003,06,08,08,49,13.90
2003,06,08,08,50,13.70
2003,06,08,08,51,13.60
2003,06,08,08,52,13.60
2003,06,08,08,53,13.80
2003,06,08,08,54,13.90
2003,06,08,08,55,13.90
2003,06,08,08,56,13.80
2003,06,08,08,57,13.70
2003,06,08,08,58,13.70
2003,06,08,08,59,13.60
2003,06,08,09,00,13.50
2003,06,08,09,01,13.50
2003,06,08,09,02,13.50
2003,06,08,09,03,13.50
2003,06,08,09,04,13.50
2003,06,08,09,05,13.40
2003,06,08,09,06,13.50
2003,06,08,09,07,13.60
2003,06,08,09,08,13.70
2003,06,08,09,09,13.70
2003,06,08,09,10,13.60
2003,06,08,09,11,13.60
2003,06,08,09,12,13.70
2003,06,08,09,13,13.80
2003,06,08,09,14,13.80
2003,06,08,09,15,13.90
2003,06,08,09,16,14.00
2003,06,08,09,17,13.90
2003,06,08,09,18,14.00
2003,06,08,09,19,14.00
2003,06,08,09,20,14.10
2003,06,08,09,21,14.20
2003,06,08,09,22,14.20
2003,06,08,09,23,14.20
2003,06,08,09,24,14.20
2003,06,08,09,25,14.20
2003,06,08,09,26,14.30
2003,06,08,09,27,14.30
2003,06,08,09,28,14.20
2003,06,08,09,29,14.40
2003,06,08,09,30,14.30
2003,06,08,09,31,14.40
2003,06,08,09,32,14.60
2003,06,08,09,33,14.60
2003,06,08,09,34,14.50
2003,06,08,09,35,14.60
2003,06,08,09,36,14.60
2003,06,08,09,37,14.70
2003,06,08,09,38,14.70
2003,06,08,09,39,14.70
2003,06,08,09,40,14.80
2003,06,08,09,41,14.80
2003,06,08,09,42,14.80
2003,06,08,09,43,14.70
2003,06,08,09,44,14.80
2003,06,08,09,45,14.70
2003,06,08,09,46,14.50
2003,06,08,09,47,14.30
2003,06,08,09,48,14.20
2003,06,08,09,49,14.30
2003,06,08,09,50,14.40
2003,06,08,09,51,14.20
2003,06,08,09,52,14.10
2003,06,08,09,53,14.00
2003,06,08,09,54,13.90
2003,06,08,09,55,14.10
2003,06,08,09,56,14.00
2003,06,08,09,57,13.90
2003,06,08,09,58,13.90
2003,06,08,09,59,13.90
2003,06,08,10,00,14.10
2003,06,08,10,01,14.00
2003,06,08,10,02,13.90
2003,06,08,10,03,13.90
2003,06,08,10,04,13.90
2003,06,08,10,05,13.90
2003,06,08,10,06,14.00
2003,06,08,10,07,14.10
2003,06,08,10,08,14.40
2003,06,08,10,09,14.50
2003,06,08,10,10,14.60
2003,06,08,10,11,14.50
2003,06,08,10,12,14.60
2003,06,08,10,13,14.60
2003,06,08,10,14,14.60
2003,06,08,10,15,14.50
2003,06,08,10,16,14.60
2003,06,08,10,17,14.50
2003,06,08,10,18,14.40
2003,06,08,10,19,14.20
2003,06,08,10,20,14.00
2003,06,08,10,21,14.10
2003,06,08,10,22,14.10
2003,06,08,10,23,14.40
2003,06,08,10,24,14.40
2003,06,08,10,25,14.30
2003,06,08,10,26,14.50
2003,06,08,10,27,14.50
2003,06,08,10,28,14.40
2003,06,08,10,29,14.40
2003,06,08,10,30,14.50
2003,06,08,10,31,14.50
2003,06,08,10,32,14.60
2003,06,08,10,33,14.60
2003,06,08,10,34,14.50
2003,06,08,10,35,14.30
2003,06,08,10,36,14.40
2003,06,08,10,37,14.60
2003,06,08,10,38,14.70
2003,06,08,10,39,14.90
2003,06,08,10,40,15.10
2003,06,08,10,41,15.20
2003,06,08,10,42,15.20
2003,06,08,10,43,15.20
2003,06,08,10,44,15.30
2003,06,08,10,45,15.30
2003,06,08,10,46,15.30
2003,06,08,10,47,15.30
2003,06,08,10,48,15.20
2003,06,08,10,49,15.20
2003,06,08,10,50,15.40
2003,06,08,10,51,15.30
2003,06,08,10,52,15.40
2003,06,08,10,53,15.50
2003,06,08,10,54,15.50
2003,06,08,10,55,15.40
2003,06,08,10,56,15.40
2003,06,08,10,57,15.40
2003,06,08,10,58,15.40
2003,06,08,10,59,15.50
2003,06,08,11,00,15.40
2003,06,08,11,01,15.50
2003,06,08,11,02,15.50
2003,06,08,11,03,15.50
2003,06,08,11,04,15.60
2003,06,08,11,05,15.50
2003,06,08,11,06,15.30
2003,06,08,11,07,15.20
2003,06,08,11,08,15.30
2003,06,08,11,09,15.30
2003,06,08,11,10,15.40
2003,06,08,11,11,15.30
2003,06,08,11,12,15.50
2003,06,08,11,13,15.60
2003,06,08,11,14,15.70
2003,06,08,11,15,15.60
2003,06,08,11,16,15.60
2003,06,08,11,17,15.50
2003,06,08,11,18,15.50
2003,06,08,11,19,15.40
2003,06,08,11,20,15.30
2003,06,08,11,21,15.10
2003,06,08,11,22,14.90
2003,06,08,11,23,14.90
2003,06,08,11,24,14.90
2003,06,08,11,25,15.00
2003,06,08,11,26,15.10
2003,06,08,11,27,14.90
2003,06,08,11,28,14.90
2003,06,08,11,29,15.00
2003,06,08,11,30,15.00
2003,06,08,11,31,15.20
2003,06,08,11,32,15.30
2003,06,08,11,33,15.50
2003,06,08,11,34,15.70
2003,06,08,11,35,15.90
2003,06,08,11,36,16.00
2003,06,08,11,37,16.10
2003,06,08,11,38,16.20
2003,06,08,11,39,16.40
2003,06,08,11,40,16.50
2003,06,08,11,41,16.70
2003,06,08,11,42,16.90
2003,06,08,11,43,17.00
2003,06,08,11,44,16.80
2003,06,08,11,45,16.70
2003,06,08,11,46,16.70
2003,06,08,11,47,16.70
2003,06,08,11,48,16.90
2003,06,08,11,49,16.90
2003,06,08,11,50,16.80
2003,06,08,11,51,16.80
2003,06,08,11,52,16.80
2003,06,08,11,53,17.00
2003,06,08,11,54,17.00
2003,06,08,11,55,17.00
2003,06,08,11,56,17.00
2003,06,08,11,57,16.80
2003,06,08,11,58,16.70
2003,06,08,11,59,16.50
2003,06,08,12,00,16.60
2003,06,08,12,01,16.70
2003,06,08,12,02,16.70
2003,06,08,12,03,16.70
2003,06,08,12,04,16.70
2003,06,08,12,05,16.40
2003,06,08,12,06,16.30
2003,06,08,12,07,16.30
2003,06,08,12,08,16.40
2003,06,08,12,09,16.50
2003,06,08,12,10,16.50
2003,06,08,12,11,16.40
2003,06,08,12,12,16.50
2003,06,08,12,13,16.50
2003,06,08,12,14,16.50
2003,06,08,12,15,16.40
2003,06,08,12,16,16.50
2003,06,08,12,17,16.60
2003,06,08,12,18,16.80
2003,06,08,12,19,17.00
2003,06,08,12,20,17.10
2003,06,08,12,21,17.20
2003,06,08,12,22,17.30
2003,06,08,12,23,17.30
2003,06,08,12,24,17.10
2003,06,08,12,25,17.10
2003,06,08,12,26,17.00
2003,06,08,12,27,17.10
2003,06,08,12,28,17.30
2003,06,08,12,29,17.30
2003,06,08,12,30,17.30
2003,06,08,12,31,17.30
2003,06,08,12,32,17.30
2003,06,08,12,33,17.40
2003,06,08,12,34,17.40
2003,06,08,12,35,17.30
2003,06,08,12,36,17.40
2003,06,08,12,37,17.50
2003,06,08,12,38,17.50
2003,06,08,12,39,17.60
2003,06,08,12,40,17.50
2003,06,08,12,41,17.50
2003,06,08,12,42,17.50
2003,06,08,12,43,17.40
2003,06,08,12,44,17.50
2003,06,08,12,45,17.50
2003,06,08,12,46,17.50
2003,06,08,12,47,17.40
2003,06,08,12,48,17.50
2003,06,08,12,49,17.60
2003,06,08,12,50,17.70
2003,06,08,12,51,17.70
2003,06,08,12,52,17.60
2003,06,08,12,53,17.70
2003,06,08,12,54,17.70
2003,06,08,12,55,17.60
2003,06,08,12,56,17.50
2003,06,08,12,57,17.60
2003,06,08,12,58,17.80
2003,06,08,12,59,17.90
2003,06,08,13,00,17.90
2003,06,08,13,01,18.00
2003,06,08,13,02,18.20
2003,06,08,13,03,18.20
2003,06,08,13,04,18.10
2003,06,08,13,05,18.00
2003,06,08,13,06,18.20
2003,06,08,13,07,18.20
2003,06,08,13,08,18.20
2003,06,08,13,09,18.30
2003,06,08,13,10,18.30
2003,06,08,13,11,18.50
2003,06,08,13,12,18.70
2003,06,08,13,13,18.90
2003,06,08,13,14,18.60
2003,06,08,13,15,18.60
2003,06,08,13,16,18.60
2003,06,08,13,17,18.60
2003,06,08,13,18,18.50
2003,06,08,13,19,18.50
2003,06,08,13,20,18.70
2003,06,08,13,21,18.60
2003,06,08,13,22,18.80
2003,06,08,13,23,18.60
2003,06,08,13,24,18.90
2003,06,08,13,25,18.80
2003,06,08,13,26,18.60
2003,06,08,13,27,18.50
2003,06,08,13,28,18.50
2003,06,08,13,29,18.40
2003,06,08,13,30,18.60
2003,06,08,13,31,18.70
2003,06,08,13,32,18.80
2003,06,08,13,33,18.80
2003,06,08,13,34,18.90
2003,06,08,13,35,18.80
2003,06,08,13,36,18.80
2003,06,08,13,37,18.90
2003,06,08,13,38,18.80
2003,06,08,13,39,18.80
2003,06,08,13,40,18.90
2003,06,08,13,41,18.90
2003,06,08,13,42,19.10
2003,06,08,13,43,19.00
2003,06,08,13,44,19.00
2003,06,08,13,45,18.90
2003,06,08,13,46,19.00
2003,06,08,13,47,19.10
2003,06,08,13,48,19.20
2003,06,08,13,49,19.40
2003,06,08,13,50,19.50
2003,06,08,13,51,19.40
2003,06,08,13,52,19.30
2003,06,08,13,53,19.10
2003,06,08,13,54,19.30
2003,06,08,13,55,19.40
2003,06,08,13,56,19.40
2003,06,08,13,57,19.30
2003,06,08,13,58,19.00
2003,06,08,13,59,18.70
2003,06,08,14,00,18.60
2003,06,08,14,01,18.60
2003,06,08,14,02,18.60
2003,06,08,14,03,18.80
2003,06,08,14,04,18.80
2003,06,08,14,05,18.90
2003,06,08,14,06,19.00
2003,06,08,14,07,18.90
2003,06,08,14,08,18.90
2003,06,08,14,09,18.80
2003,06,08,14,10,18.90
2003,06,08,14,11,19.00
2003,06,08,14,12,19.00
2003,06,08,14,13,19.00
2003,06,08,14,14,18.90
2003,06,08,14,15,18.80
2003,06,08,14,16,18.90
2003,06,08,14,17,18.90
2003,06,08,14,18,18.70
2003,06,08,14,19,18.80
2003,06,08,14,20,18.70
2003,06,08,14,21,18.80
2003,06,08,14,22,18.80
2003,06,08,14,23,18.70
2003,06,08,14,24,18.80
2003,06,08,14,25,19.00
2003,06,08,14,26,19.10
2003,06,08,14,27,19.30
2003,06,08,14,28,19.20
2003,06,08,14,29,19.10
2003,06,08,14,30,19.10
2003,06,08,14,31,19.10
2003,06,08,14,32,19.10
2003,06,08,14,33,19.10
2003,06,08,14,34,19.00
2003,06,08,14,35,18.90
2003,06,08,14,36,19.00
2003,06,08,14,37,19.00
2003,06,08,14,38,19.10
2003,06,08,14,39,19.20
2003,06,08,14,40,19.20
2003,06,08,14,41,19.40
2003,06,08,14,42,19.30
2003,06,08,14,43,19.30
2003,06,08,14,44,19.30
2003,06,08,14,45,19.40
2003,06,08,14,46,19.40
2003,06,08,14,47,19.40
2003,06,08,14,48,19.50
2003,06,08,14,49,19.40
2003,06,08,14,50,19.40
2003,06,08,14,51,19.60
2003,06,08,14,52,19.80
2003,06,08,14,53,19.90
2003,06,08,14,54,19.80
2003,06,08,14,55,19.70
2003,06,08,14,56,19.90
2003,06,08,14,57,19.90
2003,06,08,14,58,19.70
2003,06,08,14,59,19.70
2003,06,08,15,00,19.70
2003,06,08,15,01,19.60
2003,06,08,15,02,19.80
2003,06,08,15,03,19.80
2003,06,08,15,04,19.80
2003,06,08,15,05,19.80
2003,06,08,15,06,19.80
2003,06,08,15,07,19.90
2003,06,08,15,08,20.00
2003,06,08,15,09,20.10
2003,06,08,15,10,20.20
2003,06,08,15,11,20.40
2003,06,08,15,12,20.30
2003,06,08,15,13,20.50
2003,06,08,15,14,20.70
2003,06,08,15,15,20.80
2003,06,08,15,16,20.90
2003,06,08,15,17,20.80
2003,06,08,15,18,20.80
2003,06,08,15,19,20.90
2003,06,08,15,20,21.00
2003,06,08,15,21,20.80
2003,06,08,15,22,20.80
2003,06,08,15,23,20.70
2003,06,08,15,24,20.60
2003,06,08,15,25,20.80
2003,06,08,15,26,21.00
2003,06,08,15,27,21.10
2003,06,08,15,28,21.30
2003,06,08,15,29,21.40
2003,06,08,15,30,21.40
2003,06,08,15,31,21.30
2003,06,08,15,32,21.30
2003,06,08,15,33,21.40
2003,06,08,15,34,21.40
2003,06,08,15,35,21.10
2003,06,08,15,36,21.10
2003,06,08,15,37,21.10
2003,06,08,15,38,21.20
2003,06,08,15,39,21.10
2003,06,08,15,40,21.00
2003,06,08,15,41,20.70
2003,06,08,15,42,20.60
2003,06,08,15,43,20.60
2003,06,08,15,44,20.40
2003,06,08,15,45,20.30
2003,06,08,15,46,20.40
2003,06,08,15,47,20.50
2003,06,08,15,48,20.60
2003,06,08,15,49,20.70
2003,06,08,15,50,20.80
2003,06,08,15,51,20.80
2003,06,08,15,52,20.80
2003,06,08,15,53,20.90
2003,06,08,15,54,21.00
2003,06,08,15,55,20.80
2003,06,08,15,56,20.80
2003,06,08,15,57,20.80
2003,06,08,15,58,20.70
2003,06,08,15,59,20.40
2003,06,08,16,00,20.20
2003,06,08,16,01,20.10
2003,06,08,16,02,19.90
2003,06,08,16,03,19.80
2003,06,08,16,04,19.90
2003,06,08,16,05,20.00
2003,06,08,16,06,20.10
2003,06,08,16,07,20.30
2003,06,08,16,08,20.30
2003,06,08,16,09,20.50
2003,06,08,16,10,20.50
2003,06,08,16,11,20.50
2003,06,08,16,12,20.50
2003,06,08,16,13,20.50
2003,06,08,16,14,20.60
2003,06,08,16,15,20.70
2003,06,08,16,16,20.40
2003,06,08,16,17,20.20
2003,06,08,16,18,20.10
2003,06,08,16,19,20.00
2003,06,08,16,20,20.10
2003,06,08,16,21,20.20
2003,06,08,16,22,20.20
2003,06,08,16,23,20.00
2003,06,08,16,24,20.00
2003,06,08,16,25,19.90
2003,06,08,16,26,19.90
2003,06,08,16,27,19.90
2003,06,08,16,28,19.90
2003,06,08,16,29,19.90
2003,06,08,16,30,19.90
2003,06,08,16,31,20.00
2003,06,08,16,32,20.00
2003,06,08,16,33,20.00
2003,06,08,16,34,19.90
2003,06,08,16,35,20.00
2003,06,08,16,36,19.90
2003,06,08,16,37,20.00
2003,06,08,16,38,20.10
2003,06,08,16,39,20.50
2003,06,08,16,40,20.70
2003,06,08,16,41,20.70
2003,06,08,16,42,20.80
2003,06,08,16,43,20.70
2003,06,08,16,44,20.70
2003,06,08,16,45,20.80
2003,06,08,16,46,21.00
2003,06,08,16,47,21.00
2003,06,08,16,48,21.10
2003,06,08,16,49,21.20
2003,06,08,16,50,21.20
2003,06,08,16,51,21.30
2003,06,08,16,52,21.40
2003,06,08,16,53,21.50
2003,06,08,16,54,21.70
2003,06,08,16,55,21.60
2003,06,08,16,56,21.30
2003,06,08,16,57,21.20
2003,06,08,16,58,21.00
2003,06,08,16,59,21.20
2003,06,08,17,00,21.20
2003,06,08,17,01,21.20
2003,06,08,17,02,21.30
2003,06,08,17,03,21.40
2003,06,08,17,04,21.40
2003,06,08,17,05,21.40
2003,06,08,17,06,21.50
2003,06,08,17,07,21.60
2003,06,08,17,08,21.60
2003,06,08,17,09,21.60
2003,06,08,17,10,21.30
2003,06,08,17,11,21.30
2003,06,08,17,12,21.10
2003,06,08,17,13,20.90
2003,06,08,17,14,20.80
2003,06,08,17,15,20.60
2003,06,08,17,16,20.50
2003,06,08,17,17,20.60
2003,06,08,17,18,20.70
2003,06,08,17,19,20.60